Weather Roundup
Issued by NWS Chicago, IL

Home | Current Version | Previous Version | Graphics & Text | Print | Product List | Glossary On
Versions: 1 2 3 4 5 6 7 8 9 10 11 12 13 14 15 16 17 18 19 20 21 22 23 24 25 26 27 28 29 30 31 32 33 34 35 36 37 38 39 40 41 42 43 44 45 46 47 48 49 50
781
NZUS59 KLOT 190103
HRRLOT

CHICAGO AREA WEATHER ROUNDUP
NATIONAL WEATHER SERVICE CHICAGO/ROMEOVILLE IL
700 PM CST SAT NOV 18 2017

NOTE: "FAIR" INDICATES FEW OR NO CLOUDS BELOW 12,000 FEET WITH NO
SIGNIFICANT WEATHER AND/OR OBSTRUCTIONS TO VISIBILITY.

* THESE STATIONS ARE NOT UNDER NWS QUALITY CONTROL. THEY ALSO MAY NOT
  REPORT WEATHER SUCH AS PRECIPITATION OR FOG.

ILZ005-006-012>014-019>023-190200-
NORTHEAST ILLINOIS

CITY           SKY/WX    TMP DP  RH WIND       PRES   REMARKS
OHARE          CLOUDY    39  30  70 N20G28    29.70R
MIDWAY         CLOUDY    40  32  73 NW22G32   29.70R
AURORA         CLOUDY    38  33  82 NW20      29.73R
LANSING*       CLOUDY    39  35  84 NW16      29.68R
JOLIET*        CLOUDY    40  34  77 NW10G16   29.73R
WAUKEGAN       CLOUDY    38  30  73 NW12G21   29.69R
DUPAGE AIRPORT CLOUDY    38  31  76 NW21G30   29.71R
WHEELING       CLOUDY    39  31  72 N12G24    29.71R
KANKAKEE*      CLOUDY    39  33  78 NW18G25   29.71R
MORRIS*        CLOUDY    38  33  82 NW10G17   29.73R
LEWIS AIRPORT* CLOUDY    38  32  78 NW20G26   29.71R
NORTHERLY ISL    N/A     40  31  70 NW12        N/A
$$

WIZ051-052-058>065-066-070>072-190200-
SOUTHEAST WISCONSIN

CITY           SKY/WX    TMP DP  RH WIND       PRES   REMARKS
MILWAUKEE      CLOUDY    39  29  67 NW14      29.69R
KENOSHA*       CLOUDY    39  29  67 NW12G24   29.69R
RACINE*        CLOUDY    38  29  70 NW17G30   29.71R
WAUKESHA       CLOUDY    36  28  75 NW9G21    29.71R
WEST BEND      CLOUDY    36  30  80 NW14G20   29.69R
$$

INZ001>003-010>013-019-020-190200-
NORTHWEST INDIANA

CITY           SKY/WX    TMP DP  RH WIND       PRES   REMARKS
GARY*          CLOUDY    41  32  70 NW23G37   29.68R
MICHIGAN CITY* NOT AVBL
RENSSELAER*    NOT AVBL
VALPARAISO     CLOUDY    42  36  79 NW16G30   29.63R
$$

LMZ740>746-190200-
SOUTHERN LAKE MICHIGAN

STATION/POSITION TIME  SKY/WX   TEMP WIND        PRES    VSBY
                                AIR  DIR/SP/G
                 (UTC)          (F)  (DEG/KT/KT) (MB)    (MI)
HARRISON CRIB    0040            41  320/ 25/ 29   N/A
BURNHAM HARBOR   0100            40  350/ 15/ 21   N/A
CALUMET HARBOR   NOT AVBL
BURNS HARBOR     0040            43  340/ 25/ 33 1003.7R
MICHIGAN CITY    0040            42  320/ 35/ 39   N/A
$$

ABBREVIATIONS USED IN REMARKS
   TC - TEMPERATURE IN CELSIUS
  WCI - WIND CHILL INDEX
   HX - HEAT INDEX
  VSB - VISIBILITY
$$




USA.gov is the U.S. government's official web portal to all federal, state and local government web resources and services.